Location: ActonStarParty
(42.4766°N, 71.4538°W)
Time: 06:00:46
(UTC-04:00)

DMSP B5D2-2 - Pass Details

Date: 19 April 2018
Orbit: 791 x 806 km, 98.4° (Epoch: 19 September)

Event Time Altitude Azimuth Distance (km) Brightness Sun altitude
Rises 22:10:23 0° 13° (NNE) 3,311 7.7 -25.5°
Reaches altitude 10° 22:12:43 10° 14° (NNE) 2,379 6.9 -25.8°
Maximum altitude 22:18:00 86° 104° (ESE) 808 3.9 -26.4°
Enters shadow 22:18:09 84° 158° (SSE) 811 3.9 -26.5°
